GFSFLT2_prec_cloud_003.txt.gz
Cloud_Cover
0 0 0 0 0 0 0 0 0 0 0 0 0 0 0 8 0 0 0 100 100 100 100 100 100 100 100 100 100 100 100 99
0 0 0 0 0 0 0 0 0 0 0 0 1 0 0 0 0 0 0 56 100 100 100 100 100 100 100 100 100 100 100 100
0 0 0 0 0 0 0 0 0 0 0 0 0 0 0 0 0 0 0 0 100 100 100 100 100 100 100 100 100 100 100 100
0 0 0 0 1 0 0 2 3 0 4 4 0 4 0 0 0 0 0 0 4 99 100 100 100 100 100 100 100 100 100 49
0 0 0 0 0 0 0 0 0 0 0 0 0 0 0 0 6 1 5 0 24 3 94 100 100 100 100 100 100 100 100 100
0 0 0 0 0 0 0 0 0 0 0 0 0 1 0 0 0 0 0 0 1 9 14 100 100 100 100 100 100 100 100 100
0 0 1 4 2 1 8 9 23 5 1 0 4 5 9 0 0 0 0 12 6 5 55 41 99 100 96 85 100 100 100 100
0 0 3 3 0 5 6 5 5 4 14 4 2 1 6 2 3 0 0 0 0 1 0 0 50 100 100 100 66 100 100 100
1 0 5 5 78 96 19 5 52 13 19 5 5 0 0 0 0 0 0 5 5 5 38 5 1 6 99 100 100 100 100 100
19 37 12 38 58 55 97 22 49 55 73 19 10 5 5 0 3 5 4 5 6 55 97 89 14 5 8 95 100 100 100 100
100 100 99 100 100 100 100 100 98 99 66 92 66 9 5 5 5 4 0 0 5 4 9 90 17 73 7 4 28 80 100 100
100 100 100 100 100 100 99 100 79 13 6 46 97 73 52 99 48 5 5 0 0 0 0 9 4 5 12 12 2 4 9 100
100 58 61 100 100 100 98 78 68 5 5 27 100 86 15 98 99 44 5 5 5 5 5 5 5 5 5 19 89 18 0 5
93 88 5 5 6 11 30 5 19 98 100 39 5 11 30 100 100 79 23 97 42 5 5 5 5 5 5 4 7 100 97 1
60 5 5 5 5 26 20 5 56 100 92 6 82 88 91 96 100 100 100 63 81 5 5 5 5 5 5 51 46 55 100 98
98 58 5 5 5 5 5 5 5 6 87 72 100 100 100 33 100 100 100 100 72 42 11 6 87 28 5 5 5 95 100 100
27 45 100 100 98 19 6 5 6 88 95 79 92 98 100 100 100 100 100 100 89 96 60 24 100 69 5 5 5 50 100 100
100 79 30 11 52 79 93 100 100 98 99 85 64 41 55 100 100 100 100 100 93 100 100 100 84 74 72 97 9 5 59 100
67 46 88 66 5 5 5 72 97 100 100 100 100 100 100 100 100 100 100 100 100 100 100 100 100 99 100 100 98 42 12 97
5 97 64 7 15 5 5 5 5 64 100 100 100 100 100 100 100 100 100 100 100 100 100 100 100 100 100 87 29 24 90 42

GFSFLT2_prec_cloud_006.txt.gz
Cloud_Cover
51 9 0 0 0 0 0 0 0 0 0 0 0 0 0 1 0 0 0 0 0 0 74 100 100 100 100 100 100 100 100 100
0 0 0 0 0 0 0 0 0 0 0 0 0 0 0 0 0 0 0 0 0 0 49 100 100 100 100 100 100 100 100 100
0 0 0 0 0 0 0 0 0 0 0 0 0 0 1 0 1 2 0 0 0 0 2 100 100 100 100 100 100 100 100 100
0 0 0 0 0 0 0 0 0 0 0 24 7 0 0 0 1 0 0 0 0 0 1 84 100 100 100 100 100 100 100 100
0 0 0 0 0 0 10 2 2 0 0 0 0 0 0 6 10 16 0 0 14 4 5 7 100 100 100 100 100 100 100 100
0 0 0 1 4 5 5 0 5 5 5 5 18 5 1 6 12 6 0 1 1 0 4 6 28 100 100 100 100 99 100 100
5 5 5 27 43 8 16 5 5 7 80 39 7 49 7 19 24 3 0 0 2 0 9 72 100 95 100 100 100 100 73 100
7 6 24 5 22 95 100 100 99 82 33 88 77 64 90 87 68 6 5 5 3 0 0 0 0 0 74 100 100 100 100 100
100 100 100 100 76 34 30 85 100 79 100 16 6 50 80 64 20 5 5 4 1 0 0 0 0 2 1 38 100 100 100 100
100 100 92 95 98 99 100 100 72 100 100 13 5 50 27 83 30 5 11 20 6 4 1 0 0 0 1 5 4 36 94 100
100 100 100 70 97 100 100 100 100 99 100 100 48 87 51 9 45 5 8 24 6 5 5 5 0 0 0 0 0 0 67 23
70 35 37 62 64 32 8 5 10 5 1 9 94 100 67 12 95 100 80 100 93 17 5 5 5 5 5 4 0 0 5 9
8 5 5 5 5 5 5 5 5 5 5 5 5 5 6 5 5 29 69 64 10 22 5 5 5 5 5 5 5 5 4 5
5 2 5 5 62 11 13 60 6 8 7 5 20 12 44 70 28 5 5 39 69 55 8 40 36 25 5 5 5 16 5 32
28 5 5 5 88 64 64 19 29 18 41 5 5 35 44 31 66 56 57 90 99 32 63 100 99 82 26 5 5 5 13 73
5 5 59 20 7 35 5 5 5 5 5 5 2 4 4 5 5 7 39 78 82 94 68 88 100 60 19 67 5 30 5 46
6 6 52 100 100 100 100 100 100 100 41 5 5 5 5 5 5 5 5 5 24 86 100 83 93 65 9 69 49 61 5 5
35 55 100 98 100 98 100 84 61 9 14 5 19 32 36 100 98 98 100 95 67 48 96 100 100 80 26 63 42 5 5 5
97 100 100 66 85 100 100 19 5 5 5 5 7 60 99 100 48 98 100 97 100 100 97 25 88 100 100 5 43 87 58 21
60 7 46 7 42 83 24 5 5 5 5 12 17 21 94 95 100 100 100 100 87 100 99 100 100 99 71 68 81 82 100 96

GFSFLT2_prec_cloud_009.txt.gz
Cloud_Cover
56 18 0 0 0 0 0 0 0 0 0 0 0 0 0 0 0 0 0 0 0 0 1 0 0 6 100 100 100 100 100 100
0 0 0 0 0 0 0 0 0 0 0 0 0 0 0 0 0 0 0 0 0 0 0 0 24 6 100 100 100 100 100 100
0 0 0 0 0 0 0 0 0 0 3 0 0 0 0 0 4 5 2 0 0 0 0 2 0 6 66 100 100 100 100 100
0 0 0 0 0 0 0 0 0 0 17 12 7 0 0 0 0 0 1 5 3 1 0 0 0 0 3 100 100 100 100 100
0 0 0 2 2 5 5 6 27 34 5 60 17 5 6 3 25 9 0 0 0 4 5 13 0 0 2 95 100 100 100 100
6 5 9 84 96 100 100 100 100 67 43 5 14 32 14 22 91 100 100 20 4 1 8 2 5 5 0 73 100 100 100 100
35 36 47 20 84 100 100 100 100 100 100 93 22 85 42 62 50 65 85 98 100 100 90 13 0 2 5 5 84 100 100 100
28 72 69 96 62 17 22 36 28 5 76 49 40 65 37 7 30 60 35 75 48 37 92 97 100 58 4 4 5 46 100 100
15 5 10 7 5 5 5 5 5 5 5 6 5 5 5 5 5 4 2 5 5 25 36 19 5 5 3 0 3 5 6 100
4 0 0 0 1 4 5 5 5 7 5 5 5 5 5 13 5 5 5 5 5 3 3 1 3 3 0 0 0 0 1 5
1 4 5 5 5 5 5 5 5 5 5 5 6 5 5 5 5 5 14 25 5 10 10 4 0 0 0 0 0 0 0 0
5 5 1 0 0 1 3 5 5 16 94 35 5 5 5 5 5 5 5 7 23 39 15 5 5 0 0 0 0 0 4 0
0 0 0 5 5 5 5 5 3 5 6 25 48 28 5 5 5 5 5 5 5 5 5 5 5 2 0 0 0 0 2 0
1 0 5 5 5 4 0 0 0 1 0 0 1 3 4 4 4 4 3 4 5 5 5 54 36 5 3 0 3 3 5 11
0 0 0 0 1 5 9 2 3 3 36 51 62 34 4 5 5 5 7 43 12 5 5 27 96 58 65 70 60 13 5 11
11 100 100 100 100 100 100 100 100 100 100 100 100 100 100 99 43 25 67 98 95 95 93 58 7 46 80 100 100 100 93 34
55 44 62 58 6 85 89 98 100 100 100 100 100 100 100 95 19 59 100 100 100 100 100 100 100 100 100 89 88 100 96 82
5 92 67 16 5 5 11 60 34 5 7 3 2 1 0 0 4 36 87 37 16 100 100 97 59 100 88 100 95 81 99 91
5 5 5 5 5 6 74 5 5 0 1 1 0 0 0 0 0 0 93 74 97 100 95 100 99 100 100 100 100 100 100 90
5 5 14 5 5 2 1 5 2 3 0 0 0 0 0 0 1 15 94 98 100 100 100 100 100 100 100 100 100 100 96 92

GFSFLT2_prec_cloud_015.txt.gz
Cloud_Cover
2 0 0 0 0 0 0 0 0 0 0 0 0 0 0 0 0 0 6 1 5 0 0 7 4 0 0 0 0 0 2 48
0 0 0 0 0 0 0 0 0 0 0 0 0 0 0 0 0 0 0 0 0 0 0 0 0 3 0 0 0 0 0 0
0 0 0 0 0 0 0 0 0 0 0 0 0 0 0 0 0 0 0 3 0 0 0 0 0 0 4 2 0 0 0 0
0 0 0 0 0 0 2 4 4 5 5 6 5 4 3 0 0 0 0 0 0 0 1 0 0 0 0 2 5 1 0 0
0 0 0 0 0 0 0 0 0 0 0 4 14 8 2 4 5 5 24 5 5 3 3 0 0 5 3 0 0 0 0 0
0 0 0 0 0 0 0 0 0 0 0 0 0 4 5 5 5 5 0 0 1 2 5 5 5 4 5 5 5 0 0 0
1 3 0 0 0 0 4 0 0 0 0 0 0 3 5 4 0 0 0 0 0 0 1 2 4 4 5 5 5 3 0 0
5 6 5 5 5 5 4 0 0 2 2 0 2 1 1 0 0 0 0 0 0 0 0 0 5 5 5 4 3 5 5 4
52 27 5 5 14 24 6 5 5 3 0 0 0 0 0 0 0 0 0 0 0 0 0 0 0 0 1 5 5 5 4 5
0 0 5 4 4 2 5 3 1 0 0 0 0 0 0 0 0 0 0 0 1 0 0 1 4 0 0 0 0 1 5 5
0 0 0 4 5 5 5 3 0 0 0 0 2 5 4 5 5 4 3 1 0 0 0 0 0 0 0 2 2 0 0 0
0 0 5 5 5 5 5 2 0 4 5 0 0 0 0 0 0 0 0 0 0 0 1 2 4 1 0 3 0 0 0 0
0 5 5 5 5 5 5 5 1 0 0 0 0 5 5 0 4 5 5 4 5 0 2 5 4 5 5 0 0 0 0 0
0 5 5 5 5 5 4 5 5 5 16 58 8 5 5 5 4 4 3 2 0 0 0 0 5 5 5 5 2 0 0 0
0 0 1 3 0 5 4 13 43 36 9 5 5 5 5 0 0 0 0 0 0 0 0 0 3 5 8 35 5 5 4 1
5 5 5 5 11 9 5 21 32 5 5 5 5 5 5 5 4 0 0 0 0 0 0 1 5 5 5 7 5 5 5 5
91 100 97 10 5 5 6 72 5 12 18 5 5 5 5 5 5 0 0 0 0 0 0 0 5 57 10 91 100 83 46 5
21 73 18 77 87 86 82 27 74 70 84 76 5 17 5 4 5 5 3 0 1 18 65 84 100 75 80 87 100 100 82 48
87 97 100 86 87 85 100 100 41 5 41 24 7 7 21 41 8 5 2 22 60 87 85 100 100 100 100 100 100 100 100 100
41 27 62 72 100 100 100 99 87 88 12 95 97 94 61 58 18 5 23 14 32 82 100 100 100 100 100 100 100 100 100 100

GFSFLT2_prec_cloud_018.txt.gz
Cloud_Cover
86 87 3 0 0 0 0 0 0 0 0 0 0 0 0 0 0 0 0 0 1 1 4 2 0 0 0 0 0 0 25 34
13 1 0 0 0 0 0 0 0 0 0 0 0 4 0 0 0 0 0 0 0 0 0 0 0 0 0 0 0 0 14 76
23 0 0 0 0 0 0 0 0 7 0 0 0 0 0 0 2 0 0 0 0 0 0 0 0 0 0 0 0 0 3 26
0 0 0 0 0 0 0 0 0 0 0 0 0 0 0 0 0 0 0 0 0 0 0 0 0 0 2 0 0 0 0 1
0 0 0 0 0 0 0 0 0 0 0 0 0 0 0 0 0 0 0 0 0 0 0 0 0 0 0 0 0 0 0 0
0 0 0 0 0 0 0 0 0 0 0 0 0 0 0 0 0 0 0 0 0 0 0 0 0 0 0 0 0 0 0 0
0 0 0 3 0 0 0 0 0 0 0 0 0 0 0 0 0 0 0 0 0 0 0 0 0 0 0 0 0 0 0 0
0 0 0 0 0 0 0 0 0 0 0 0 0 0 0 0 0 0 0 0 0 0 0 0 0 0 0 0 0 0 0 0
0 0 0 2 0 3 1 0 0 0 0 0 0 0 0 1 0 0 0 0 0 0 0 0 0 0 0 0 0 0 0 0
0 0 0 0 0 0 5 5 5 0 0 0 5 4 5 5 5 5 5 5 5 3 0 4 5 4 2 0 0 0 0 0
0 0 0 1 5 5 5 5 5 5 5 5 5 5 4 5 5 3 0 0 3 0 1 2 0 0 2 3 1 4 1 0
0 0 3 5 5 5 5 5 5 5 5 5 0 3 2 0 0 0 0 0 4 3 5 5 5 2 0 0 0 0 1 0
4 5 5 5 5 5 5 5 5 3 5 5 5 5 5 5 4 5 30 52 9 5 5 5 4 0 0 0 0 0 0 0
5 5 9 26 5 5 5 5 5 5 7 14 5 5 6 8 5 10 5 6 72 78 5 5 5 0 2 2 4 5 17 1
41 64 32 5 5 5 8 81 92 89 88 83 28 21 62 80 5 5 18 26 5 6 7 60 19 53 46 61 5 63 95 98
5 5 10 33 5 5 56 95 79 21 6 5 11 75 24 5 17 51 6 5 8 9 15 37 5 79 100 88 97 24 63 100
5 5 32 70 89 94 29 5 5 6 75 100 100 5 5 6 13 5 5 5 5 5 5 6 32 87 45 100 86 98 100 100
69 29 76 78 98 16 29 36 79 38 58 7 5 5 28 100 100 89 55 5 12 67 100 75 94 92 88 100 100 91 100 100
62 71 76 96 40 48 60 89 57 15 6 5 5 72 100 72 62 65 9 78 98 82 77 99 100 100 100 100 100 100 100 100
12 90 56 8 39 60 18 5 42 69 23 97 100 100 100 15 15 51 97 100 100 69 82 67 96 96 100 100 100 100 100 100

GFSFLT2_prec_cloud_021.txt.gz
Cloud_Cover
100 100 100 15 20 2 0 0 0 0 0 0 0 0 0 0 0 0 0 0 0 0 0 0 0 0 0 0 0 0 0 6
100 100 100 5 0 0 0 0 0 0 0 0 0 0 0 0 0 0 0 0 0 0 0 0 0 0 0 0 0 0 0 1
100 100 42 4 0 3 0 0 0 2 0 0 0 0 0 5 0 0 0 0 0 0 0 0 0 0 0 0 0 0 0 0
100 43 3 1 0 0 0 0 0 0 0 0 0 0 0 0 3 0 0 0 0 0 0 0 0 0 0 0 0 0 2 4
10 0 0 0 0 0 0 0 0 0 0 0 0 0 6 3 31 16 31 0 0 0 0 0 0 0 0 0 0 0 0 0
0 0 0 0 0 0 0 0 0 0 0 0 0 0 0 0 0 0 0 0 0 0 0 0 0 0 0 0 0 0 0 0
16 0 0 0 0 0 0 0 0 0 0 0 0 0 0 0 0 0 0 0 0 0 0 0 0 0 0 0 0 0 0 0
52 12 0 0 0 0 0 0 0 0 0 0 0 0 0 0 0 0 0 4 0 0 0 0 0 1 0 0 0 0 0 0
84 36 0 0 0 0 0 0 0 0 0 0 0 0 0 5 6 8 12 5 5 33 54 38 5 5 2 0 0 0 0 2
4 0 0 0 0 0 5 5 5 4 5 5 1 4 5 8 41 22 56 91 52 26 12 0 2 3 1 2 0 2 5 1
0 0 2 3 5 22 5 7 5 5 5 5 5 5 11 40 43 25 6 5 5 0 0 1 2 34 36 14 40 15 8 5
0 0 3 5 41 62 45 59 5 31 51 5 5 5 5 5 5 5 5 5 2 5 5 9 5 19 88 59 43 34 88 50
0 5 5 30 75 77 86 89 92 87 27 10 10 5 5 5 5 5 5 5 5 5 5 5 10 5 5 5 16 5 5 5
4 5 21 76 100 100 100 100 87 91 93 91 71 9 46 48 30 81 88 58 18 16 12 22 21 85 40 22 5 5 29 12
5 5 64 100 100 83 94 95 83 81 100 30 30 89 99 28 8 5 32 51 14 5 5 78 100 100 22 5 5 5 12 54
5 47 17 9 5 68 98 93 89 97 24 58 31 97 39 5 5 5 48 5 5 5 11 68 35 28 5 5 84 72 70 26
5 5 5 44 85 95 100 93 100 30 46 62 43 19 77 17 5 5 5 5 5 9 94 80 54 31 35 42 6 4 63 92
5 5 5 8 28 5 21 56 78 100 75 36 24 62 43 5 5 18 69 92 99 78 96 97 76 50 52 68 95 100 100 100
10 59 96 89 84 100 100 98 60 70 70 95 98 37 10 88 100 73 19 89 100 100 100 91 32 22 96 85 86 98 100 100
100 100 35 15 62 78 68 95 99 91 81 71 41 88 72 11 7 65 100 100 100 100 100 100 73 87 63 94 100 100 100 100

GFSFLT2_prec_cloud_024.txt.gz
Cloud_Cover
100 100 100 100 100 100 100 100 99 24 0 0 0 0 0 0 0 0 0 0 0 0 0 0 0 0 0 0 0 0 0 0
100 100 100 100 100 100 100 58 4 0 0 0 0 0 0 0 0 0 0 0 0 0 0 0 0 0 0 0 0 0 0 0
100 100 100 100 84 86 92 5 0 0 0 0 0 9 97 18 0 0 0 0 0 0 0 0 0 0 0 0 0 0 0 0
100 100 100 85 5 3 0 0 0 0 0 2 90 0 36 0 1 0 0 0 0 0 0 0 0 0 0 0 0 0 0 0
100 100 29 4 0 0 20 0 0 0 0 0 0 0 16 0 0 0 0 0 0 0 0 0 0 0 0 0 0 0 0 0
76 13 0 0 0 0 0 0 0 14 0 0 0 0 0 0 0 0 0 0 0 0 0 0 0 0 0 0 0 1 0 0
38 1 0 0 0 0 0 0 0 0 0 0 0 0 0 0 0 0 0 0 0 0 0 0 0 2 0 0 0 1 0 0
2 0 0 0 0 0 0 0 0 0 0 0 0 0 0 0 0 0 0 0 0 4 5 3 0 0 0 0 0 0 0 0
5 54 50 0 0 0 0 0 5 0 0 2 5 0 0 0 0 0 0 0 0 0 0 0 0 0 0 0 0 0 0 0
93 38 4 0 0 0 0 0 5 5 5 5 5 0 5 3 5 5 2 5 5 5 5 5 0 0 1 0 0 1 2 5
3 3 0 0 14 2 4 5 5 5 23 6 5 4 5 5 5 4 5 4 5 25 7 3 1 5 5 7 5 40 44 5
0 5 7 7 5 4 5 5 5 12 99 7 5 5 5 11 5 5 5 5 5 5 5 5 5 5 5 5 5 5 5 5
0 0 5 5 5 41 95 17 72 26 73 76 5 74 98 5 5 5 5 5 5 5 3 5 5 5 5 5 5 5 5 5
5 53 99 10 73 74 71 98 46 56 76 66 5 99 80 18 5 24 4 5 5 5 4 2 5 4 3 4 4 5 21 16
83 72 5 67 34 5 5 5 34 62 79 70 100 45 80 50 5 5 5 5 5 5 5 5 4 5 4 21 34 15 9 53
5 5 5 4 5 2 5 5 5 9 5 7 5 26 92 59 60 50 5 5 5 11 5 5 5 5 15 5 74 80 82 23
5 5 5 5 5 5 8 48 50 27 83 100 100 100 100 100 100 51 35 92 99 58 94 100 100 98 17 32 20 67 100 82
1 0 5 6 9 27 99 100 100 100 100 100 100 100 100 100 100 100 95 81 100 100 100 99 32 24 21 89 99 100 100 100
14 74 100 100 99 100 100 100 100 100 100 100 80 77 96 100 100 100 100 89 100 100 100 100 100 25 5 20 95 100 100 99
95 100 100 100 100 100 100 100 100 100 82 100 100 100 100 100 98 81 100 100 66 91 100 100 83 93 92 93 27 39 69 39

GFSFLT2_prec_cloud_027.txt.gz
Cloud_Cover
100 100 100 100 100 100 100 100 100 100 35 4 0 0 0 0 0 0 0 0 0 0 0 0 0 0 0 0 0 0 0 0
100 100 100 100 100 100 100 100 100 6 3 0 0 0 0 0 0 0 0 0 0 0 0 0 0 0 0 0 0 0 0 0
100 100 100 100 100 100 100 100 94 8 0 0 0 0 0 0 0 0 0 0 0 0 0 0 0 0 0 0 0 0 0 0
100 100 100 100 100 100 100 100 38 0 0 0 0 0 0 0 0 0 0 0 0 0 0 0 0 0 0 0 0 0 0 0
100 100 100 100 100 100 100 8 1 0 0 0 0 0 0 0 0 0 0 0 0 0 0 0 0 0 0 0 0 0 0 0
100 100 100 100 100 44 1 2 0 0 0 0 0 0 0 0 0 0 0 0 0 0 0 0 0 0 0 0 0 0 0 0
100 100 100 97 47 100 100 95 16 0 0 0 0 0 0 0 0 0 0 0 0 0 0 0 0 0 0 0 0 0 0 0
98 33 92 96 100 100 100 100 4 0 0 0 0 0 4 5 1 0 0 0 0 0 0 0 0 0 0 0 0 0 0 0
15 74 100 100 100 100 100 10 0 0 0 0 1 0 5 5 3 5 5 2 0 0 0 0 0 0 0 0 0 0 0 0
83 100 100 100 100 100 97 5 3 0 0 1 0 5 3 4 5 5 5 3 0 0 0 0 0 0 0 2 5 5 5 5
1 0 100 100 100 99 5 0 1 5 5 5 5 5 5 5 5 5 36 5 5 2 0 2 0 3 5 5 5 5 32 79
0 0 1 2 8 4 5 5 5 5 5 5 5 5 5 5 7 33 47 5 5 5 1 0 4 5 3 2 5 5 7 45
4 0 0 0 0 5 5 5 5 5 5 5 5 5 16 100 5 5 1 0 0 0 0 2 5 5 5 5 5 5 5 5
0 5 26 5 5 5 5 5 2 4 4 66 92 55 9 5 5 3 4 5 5 33 40 10 15 5 5 5 2 5 6 32
5 40 62 41 5 5 5 1 3 5 5 64 77 22 6 3 2 3 4 5 4 2 1 2 5 5 5 43 74 50 86 100
2 5 5 5 5 2 1 5 5 44 45 71 82 25 5 5 2 4 5 0 0 2 4 5 16 82 98 98 95 52 6 66
5 5 5 1 5 34 100 100 100 100 100 96 41 6 10 45 89 100 100 100 97 94 60 100 100 100 100 96 5 5 8 26
1 0 0 0 3 5 29 91 89 100 100 100 100 100 100 100 81 38 4 4 5 54 93 100 99 100 83 5 5 95 97 100
5 56 100 96 100 80 23 5 31 94 72 98 72 34 14 9 7 5 4 5 5 5 80 90 43 97 90 13 26 44 55 100
5 12 37 96 78 100 99 93 100 98 100 44 39 11 5 5 4 2 4 2 5 5 27 100 100 99 61 6 61 74 96 100

GFSFLT2_prec_cloud_030.txt.gz
Cloud_Cover
100 100 100 90 100 100 100 100 100 100 100 100 100 100 66 4 0 0 0 0 0 0 0 0 0 0 0 0 0 0 0 0
100 100 98 100 100 100 100 100 100 100 100 100 100 100 5 0 0 0 0 0 0 0 0 0 0 0 0 0 0 0 0 0
100 100 100 100 100 100 100 100 100 100 100 100 16 1 0 0 0 0 0 0 0 0 0 0 0 0 0 0 0 0 0 0
100 100 100 100 100 100 100 100 100 100 100 5 4 3 0 0 0 0 0 0 0 0 0 0 0 0 0 0 0 0 0 0
100 100 100 100 100 100 100 100 100 100 91 72 22 10 5 0 0 0 0 0 0 0 0 0 0 0 0 0 0 0 0 0
100 100 100 100 100 100 100 100 100 100 100 100 100 7 4 0 0 0 0 0 0 0 0 0 0 0 0 0 0 0 0 0
100 100 100 100 100 100 100 100 100 100 100 100 100 6 5 0 0 0 0 0 0 0 0 0 0 0 0 0 0 0 0 0
100 100 100 100 100 97 99 64 100 100 100 100 100 81 1 0 0 0 0 0 0 0 0 0 0 0 0 0 0 0 0 0
100 100 25 88 100 97 100 100 13 100 100 95 100 64 0 5 5 5 5 4 5 5 5 0 0 0 5 5 4 3 4 3
45 4 70 100 68 91 100 100 15 100 100 100 100 5 5 5 2 4 5 5 5 5 5 5 0 1 5 5 5 5 5 5
5 15 5 22 4 0 91 100 100 100 19 76 17 69 66 5 5 4 5 5 5 5 4 0 0 0 3 4 5 5 5 5
17 85 32 62 5 5 49 100 99 99 14 5 5 5 31 72 5 44 19 5 5 1 0 0 0 2 5 5 5 5 30 64
44 75 79 63 92 97 22 68 76 75 13 2 5 5 33 73 98 28 5 4 5 5 5 4 0 4 5 5 9 8 8 46
1 0 59 79 100 96 100 100 95 18 0 5 8 73 94 51 8 30 50 4 1 0 3 4 5 5 4 6 8 5 5 5
0 4 5 6 74 88 24 14 54 78 93 80 31 5 5 2 0 0 2 1 0 0 0 0 0 2 11 79 43 11 5 12
0 5 5 16 10 5 5 14 89 88 86 65 10 5 5 0 0 1 0 2 4 2 4 5 56 88 100 40 100 73 26 5
0 0 0 0 5 29 97 100 100 97 100 100 100 100 100 100 100 100 100 99 22 5 3 5 2 36 59 72 63 57 23 86
0 0 0 2 5 62 100 89 88 100 100 100 100 100 99 91 86 68 10 4 3 2 5 5 5 6 58 90 59 13 6 99
4 4 4 67 80 50 54 31 24 27 20 39 25 60 38 5 5 5 5 5 4 5 5 6 5 25 98 100 100 84 81 100
5 98 100 100 100 100 100 100 99 100 100 44 62 8 5 3 4 5 1 5 5 5 5 7 10 5 5 9 20 77 98 96